• Em Portugal
  • Lista de países
  • Para 7 dias
  • Temperatura da água
  • Mapas de satélite
  • Mapa do tempo
  • Widgets de tempo
  • user-avatar
    Iniciar Sessão

    Previsão horária em Baraki Barak

    Hoje, 23 Janeiro, Terça-feira

    Tempo Temperatura Precipitação Vento Pressão Humidade
    00:00 +1°C° 0 mm 2 m/s 592 mmHg 20%
    01:00 +1°C° 0 mm 2 m/s 592 mmHg 19%
    02:00 -1°C° 0 mm 2 m/s 592 mmHg 18%
    03:00 -1°C° 0 mm 2 m/s 592 mmHg 18%
    04:00 -1°C° 0 mm 2 m/s 592 mmHg 18%
    05:00 -1°C° 0 mm 2 m/s 591 mmHg 24%
    06:00 -1°C° 0 mm 2 m/s 592 mmHg 25%
    07:00 -1°C° 0 mm 2 m/s 592 mmHg 26%
    08:00 -1°C° 0 mm 2 m/s 592 mmHg 27%
    09:00 +1°C° 0 mm 2 m/s 593 mmHg 25%
    10:00 +3°C° 0 mm 1 m/s 593 mmHg 23%
    11:00 +5°C° 0 mm 1 m/s 593 mmHg 23%
    12:00 +6°C° 0 mm 1 m/s 593 mmHg 22%
    13:00 +6°C° 0 mm 1 m/s 593 mmHg 21%
    14:00 +7°C° 0 mm 1 m/s 592 mmHg 21%
    15:00 +7°C° 0 mm 1 m/s 592 mmHg 22%
    16:00 +6°C° 0 mm 1 m/s 592 mmHg 24%
    17:00 +6°C° 0 mm 1 m/s 592 mmHg 27%
    18:00 +4°C° 0 mm 2 m/s 592 mmHg 28%
    19:00 +3°C° 0 mm 2 m/s 592 mmHg 29%
    20:00 +2°C° 0 mm 2 m/s 592 mmHg 30%
    21:00 +2°C° 0 mm 2 m/s 592 mmHg 31%
    22:00 +2°C° 0 mm 2 m/s 592 mmHg 31%
    23:00 +1°C° 0 mm 2 m/s 592 mmHg 31%

    Amanhã, 24 Janeiro, Quarta-feira

    Tempo Temperatura Precipitação Vento Pressão Humidade
    00:00 +1°C° 0 mm 2 m/s 592 mmHg 32%
    01:00 +1°C° 0 mm 2 m/s 592 mmHg 32%
    02:00 +1°C° 0 mm 2 m/s 592 mmHg 32%
    03:00 +1°C° 0 mm 2 m/s 592 mmHg 32%
    04:00 -1°C° 0 mm 2 m/s 592 mmHg 32%
    05:00 -1°C° 0 mm 2 m/s 592 mmHg 32%
    06:00 -1°C° 0 mm 2 m/s 592 mmHg 32%
    07:00 -1°C° 0 mm 2 m/s 592 mmHg 32%
    08:00 -1°C° 0 mm 2 m/s 592 mmHg 32%
    09:00 +2°C° 0 mm 2 m/s 593 mmHg 28%
    10:00 +5°C° 0 mm 1 m/s 593 mmHg 25%
    11:00 +6°C° 0 mm 1 m/s 594 mmHg 21%
    12:00 +7°C° 0 mm 1 m/s 594 mmHg 21%
    13:00 +8°C° 0 mm 1 m/s 594 mmHg 20%
    14:00 +9°C° 0 mm 1 m/s 594 mmHg 19%
    15:00 +8°C° 0 mm 1 m/s 594 mmHg 22%
    16:00 +8°C° 0 mm 1 m/s 594 mmHg 25%
    17:00 +8°C° 0 mm 1 m/s 594 mmHg 28%
    18:00 +7°C° 0 mm 1 m/s 594 mmHg 30%
    19:00 +5°C° 0 mm 1 m/s 594 mmHg 33%
    20:00 +4°C° 0 mm 1 m/s 594 mmHg 35%
    21:00 +4°C° 0 mm 1 m/s 594 mmHg 36%
    22:00 +3°C° 0 mm 1 m/s 594 mmHg 37%
    23:00 +3°C° 0 mm 1 m/s 594 mmHg 37%

    Depois de amanhã, 25 Janeiro, Quinta-feira

    Tempo Temperatura Precipitação Vento Pressão Humidade
    00:00 +3°C° 0 mm 1 m/s 593 mmHg 38%
    01:00 +2°C° 0 mm 1 m/s 593 mmHg 38%
    02:00 +2°C° 0 mm 1 m/s 593 mmHg 39%
    03:00 +2°C° 0 mm 1 m/s 593 mmHg 39%
    04:00 +1°C° 0 mm 1 m/s 593 mmHg 39%
    05:00 +1°C° 0 mm 1 m/s 593 mmHg 39%
    06:00 -1°C° 0 mm 2 m/s 593 mmHg 39%
    07:00 -1°C° 0 mm 2 m/s 593 mmHg 38%
    08:00 -1°C° 0 mm 2 m/s 594 mmHg 38%
    09:00 +2°C° 0 mm 2 m/s 594 mmHg 34%
    10:00 +3°C° 0 mm 2 m/s 594 mmHg 29%
    11:00 +5°C° 0 mm 2 m/s 595 mmHg 25%
    12:00 +5°C° 0 mm 2 m/s 595 mmHg 24%
    13:00 +6°C° 0 mm 2 m/s 594 mmHg 23%
    14:00 +7°C° 0 mm 2 m/s 594 mmHg 21%
    15:00 +6°C° 0 mm 2 m/s 594 mmHg 22%
    16:00 +6°C° 0 mm 2 m/s 594 mmHg 24%
    17:00 +6°C° 0 mm 2 m/s 594 mmHg 25%
    18:00 +5°C° 0 mm 2 m/s 594 mmHg 28%
    19:00 +4°C° 0 mm 2 m/s 594 mmHg 30%
    20:00 +2°C° 0 mm 2 m/s 594 mmHg 33%
    21:00 +2°C° 0 mm 2 m/s 594 mmHg 34%
    22:00 +2°C° 0 mm 2 m/s 594 mmHg 34%
    23:00 +1°C° 0 mm 2 m/s 594 mmHg 35%

    26 Janeiro, Sexta-feira

    Tempo Temperatura Precipitação Vento Pressão Humidade
    00:00 +1°C° 0 mm 2 m/s 594 mmHg 35%
    01:00 +1°C° 0 mm 2 m/s 594 mmHg 34%
    02:00 -1°C° 0 mm 2 m/s 594 mmHg 34%
    03:00 -1°C° 0 mm 2 m/s 594 mmHg 34%
    04:00 -1°C° 0 mm 2 m/s 594 mmHg 34%
    05:00 -1°C° 0 mm 2 m/s 594 mmHg 33%
    06:00 -1°C° 0 mm 2 m/s 594 mmHg 33%
    07:00 -2°C° 0 mm 2 m/s 594 mmHg 32%
    08:00 -2°C° 0 mm 2 m/s 595 mmHg 32%
    09:00 +1°C° 0 mm 2 m/s 595 mmHg 28%
    10:00 +3°C° 0 mm 2 m/s 595 mmHg 25%
    11:00 +4°C° 0 mm 2 m/s 595 mmHg 21%
    12:00 +5°C° 0 mm 2 m/s 595 mmHg 20%
    13:00 +6°C° 0 mm 2 m/s 595 mmHg 19%
    14:00 +6°C° 0 mm 2 m/s 594 mmHg 18%
    15:00 +6°C° 0 mm 2 m/s 594 mmHg 19%
    16:00 +6°C° 0 mm 2 m/s 594 mmHg 21%
    17:00 +6°C° 0 mm 2 m/s 594 mmHg 22%
    18:00 +5°C° 0 mm 2 m/s 594 mmHg 24%
    19:00 +4°C° 0 mm 2 m/s 594 mmHg 26%
    20:00 +3°C° 0 mm 2 m/s 594 mmHg 27%
    21:00 +2°C° 0 mm 2 m/s 594 mmHg 28%
    22:00 +2°C° 0 mm 2 m/s 594 mmHg 28%
    23:00 +2°C° 0 mm 2 m/s 594 mmHg 28%

    27 Janeiro, Sábado

    Tempo Temperatura Precipitação Vento Pressão Humidade
    00:00 +1°C° 0 mm 2 m/s 594 mmHg 29%
    01:00 +1°C° 0 mm 2 m/s 593 mmHg 30%
    02:00 -1°C° 0 mm 2 m/s 593 mmHg 31%
    03:00 -1°C° 0 mm 2 m/s 593 mmHg 31%
    04:00 -1°C° 0 mm 2 m/s 593 mmHg 31%
    05:00 -1°C° 0 mm 2 m/s 592 mmHg 31%
    06:00 -1°C° 0 mm 2 m/s 593 mmHg 31%
    07:00 -1°C° 0 mm 2 m/s 593 mmHg 30%
    08:00 -1°C° 0 mm 2 m/s 593 mmHg 30%
    09:00 +1°C° 0 mm 2 m/s 593 mmHg 27%
    10:00 +3°C° 0 mm 2 m/s 594 mmHg 24%
    11:00 +4°C° 0 mm 2 m/s 594 mmHg 21%
    12:00 +5°C° 0 mm 2 m/s 594 mmHg 20%
    13:00 +5°C° 0 mm 3 m/s 593 mmHg 20%
    14:00 +7°C° 0 mm 3 m/s 593 mmHg 20%
    15:00 +7°C° 0 mm 3 m/s 593 mmHg 21%
    16:00 +7°C° 0 mm 3 m/s 593 mmHg 23%
    17:00 +5°C° 0 mm 3 m/s 593 mmHg 25%
    18:00 +4°C° 0 mm 3 m/s 593 mmHg 28%
    19:00 +4°C° 0 mm 2 m/s 593 mmHg 31%
    20:00 +3°C° 0 mm 2 m/s 593 mmHg 33%
    21:00 +3°C° 0 mm 2 m/s 593 mmHg 34%
    22:00 +2°C° 0 mm 2 m/s 593 mmHg 35%
    23:00 +3°C° 0 mm 1 m/s 593 mmHg 36%

    28 Janeiro, Domingo

    Tempo Temperatura Precipitação Vento Pressão Humidade
    00:00 +2°C° 0 mm 1 m/s 593 mmHg 37%
    01:00 +2°C° 0 mm 1 m/s 592 mmHg 38%
    02:00 +2°C° 0 mm 1 m/s 592 mmHg 38%
    03:00 +2°C° 0 mm 1 m/s 592 mmHg 39%
    04:00 +1°C° 0 mm 1 m/s 592 mmHg 40%
    05:00 +1°C° 0 mm 1 m/s 591 mmHg 40%
    06:00 +1°C° 0 mm 1 m/s 592 mmHg 41%
    07:00 +1°C° 0 mm 1 m/s 592 mmHg 41%
    08:00 +1°C° 0 mm 1 m/s 592 mmHg 41%
    09:00 +3°C° 0 mm 1 m/s 593 mmHg 38%
    10:00 +4°C° 0 mm 1 m/s 593 mmHg 34%
    11:00 +6°C° 0 mm 1 m/s 594 mmHg 30%
    12:00 +6°C° 0 mm 2 m/s 593 mmHg 30%
    13:00 +6°C° 0 mm 2 m/s 593 mmHg 29%
    14:00 +7°C° 0 mm 2 m/s 593 mmHg 28%
    15:00 +7°C° 0 mm 2 m/s 593 mmHg 30%
    16:00 +7°C° 0 mm 2 m/s 592 mmHg 32%
    17:00 +6°C° 0 mm 2 m/s 592 mmHg 34%
    18:00 +5°C° 0,1 mm 2 m/s 592 mmHg 39%
    19:00 +3°C° 0,1 mm 3 m/s 592 mmHg 44%
    20:00 +3°C° 0,1 mm 4 m/s 592 mmHg 48%
    21:00 +2°C° 0,1 mm 3 m/s 592 mmHg 52%
    22:00 +1°C° 0,1 mm 3 m/s 593 mmHg 56%
    23:00 +2°C° 0,1 mm 2 m/s 593 mmHg 60%
    Mostrar mais